Theta_e
298 298 298 299 300 302 305 309 312 315 316 316 312 312 314 315 314 311 317 317 320 319 316 319 319 318 317 320 319 321 320 322 321 319 317 316 316 317 317 319 319 313 318 319
298 298 298 298 299 301 303 307 308 312 313 308 309 310 310 310 308 308 311 314 315 312 316 317 320 320 318 319 318 318 319 322 325 324 320 315 316 316 316 316 317 319 320 320
297 298 298 298 298 299 303 307 304 308 310 307 306 305 305 306 305 306 306 306 308 306 307 309 311 313 313 308 313 316 315 318 323 324 321 313 315 312 316 315 319 319 319 318
296 297 297 298 298 299 303 305 306 305 303 303 303 304 304 304 305 305 305 305 306 306 306 306 307 306 306 308 309 313 314 315 314 313 312 312 312 311 310 313 313 314 317 319
296 296 296 297 297 299 301 306 305 305 305 304 303 303 304 305 306 305 305 305 306 305 305 305 306 307 307 307 309 310 310 309 311 312 311 310 309 309 312 312 311 313 318 319
297 298 299 298 299 300 303 303 305 304 304 303 302 302 304 306 304 305 305 305 305 305 305 305 305 306 307 306 306 307 307 309 307 309 308 309 309 309 311 311 312 313 316 318
296 297 298 303 303 302 304 302 303 303 301 303 303 304 303 303 304 304 305 305 305 306 305 305 305 305 305 305 305 306 307 308 307 308 307 310 309 310 311 312 311 315 315 314
295 296 296 297 302 303 303 304 302 303 301 302 302 302 303 303 303 303 304 304 305 304 305 304 304 304 303 304 304 304 305 309 312 311 309 310 310 311 316 316 316 312 311 310
296 297 296 295 296 301 301 302 303 303 303 302 302 303 303 303 302 303 304 304 304 304 304 304 301 304 303 304 304 305 304 307 308 305 303 306 305 309 313 313 313 311 311 310
296 296 296 298 301 299 297 298 302 303 302 302 302 302 302 303 303 304 303 303 304 304 304 305 305 303 304 304 304 303 305 306 307 308 308 309 310 310 308 309 311 310 310 309
295 296 297 302 301 300 296 296 297 300 301 300 301 301 302 302 302 303 303 303 302 303 304 305 301 302 302 304 304 305 305 306 305 306 307 304 310 306 306 306 308 309 310 308
296 297 299 301 299 299 298 298 298 299 301 300 299 299 299 300 300 301 302 302 302 303 303 303 303 303 299 302 303 301 303 304 305 305 303 303 305 305 305 305 304 306 308 308
297 297 299 300 300 301 301 301 301 299 299 299 299 300 300 299 300 300 302 302 302 303 303 303 304 305 299 304 303 302 301 302 305 305 305 304 305 304 304 304 306 305 307 306
298 299 301 301 301 301 301 302 302 301 301 300 300 300 300 300 300 301 301 301 302 302 303 303 304 304 303 302 302 302 303 303 303 303 303 303 303 303 303 303 304 304 305 305
299 300 301 301 300 300 300 300 301 301 301 299 300 300 301 300 300 300 301 301 302 302 303 304 304 303 304 302 303 304 303 303 304 304 303 302 302 303 303 303 304 303 303 304
300 300 300 299 300 301 301 301 300 301 300 302 300 300 301 301 303 302 302 300 301 302 303 304 304 304 303 304 304 303 303 303 303 302 303 303 303 303 303 302 303 304 304 304
300 299 299 299 299 301 301 301 300 302 301 302 300 297 301 301 302 302 303 303 301 302 302 303 303 304 304 303 304 303 303 303 303 303 303 302 302 302 303 303 303 303 305 306
299 299 298 298 299 300 301 302 301 301 302 302 301 300 299 302 302 302 303 304 303 303 304 302 303 303 303 303 302 302 303 303 302 302 302 302 303 304 304 304 304 303 303 303
299 299 298 299 301 301 301 302 302 301 300 300 300 300 299 301 301 300 302 301 303 303 303 304 302 301 303 302 302 302 302 301 302 303 303 303 303 302 302 302 302 302 302 302
299 299 301 301 303 301 301 300 301 300 300 300 298 299 299 300 299 300 301 301 301 303 301 302 303 302 302 302 302 302 302 303 300 301 301 302 302 301 301 301 301 300 301 302
299 299 300 301 299 299 300 300 299 299 299 299 299 299 300 300 300 300 301 300 299 301 298 300 299 300 299 303 302 302 302 301 300 301 302 301 301 301 300 299 298 298 300 302
300 299 299 298 299 298 297 296 298 296 295 300 300 300 300 300 300 301 301 303 302 301 299 301 300 298 303 303 302 302 301 300 300 300 301 301 300 299 297 296 296 297 300 302
300 299 298 298 298 296 299 293 294 293 299 300 301 298 300 299 300 299 300 301 299 297 299 301 299 301 302 301 301 301 301 300 300 300 300 299 299 297 295 296 296 297 297 297
299 298 297 298 297 297 295 295 297 300 300 301 300 299 299 299 300 300 301 298 299 298 297 299 301 301 302 302 301 300 300 299 300 299 298 298 297 295 296 295 296 298 298 299
298 298 298 296 298 299 300 300 299 300 300 298 298 296 298 297 300 299 300 300 299 297 298 298 301 301 300 299 298 297 298 297 299 298 297 295 295 296 295 296 296 297 298 299
298 297 298 298 297 296 298 298 299 299 298 298 297 298 299 298 298 299 297 296 297 301 300 299 299 298 297 297 296 296 297 299 297 297 295 294 295 295 296 296 297 297 298 299
297 297 297 298 297 297 297 298 298 298 298 296 297 296 297 295 299 298 294 299 299 298 297 296 296 296 295 295 295 296 298 298 297 294 295 295 295 295 295 295 295 296 297 297
Wind_Speed
22 24 25 26 25 25 11 8 4 7 7 3 3 1 4 10 11 18 6 7 4 3 10 7 6 7 6 16 8 6 4 5 9 14 12 13 19 17 21 13 16 5 15 23
23 24 25 25 27 28 22 6 5 7 7 3 4 7 7 9 7 7 5 5 4 9 5 7 3 7 14 16 12 12 9 4 9 14 9 5 5 8 14 11 15 21 19 23
21 22 23 24 24 23 14 5 4 5 8 9 4 4 5 6 18 4 10 6 5 10 4 6 10 11 8 23 20 16 4 5 10 10 5 7 10 23 22 12 12 19 22 31
21 21 22 22 22 20 9 6 3 4 4 4 6 2 3 4 4 9 12 4 6 6 5 14 8 17 14 7 13 3 3 9 13 18 23 22 21 22 24 23 17 11 26 30
19 19 19 19 20 18 13 4 4 3 5 5 5 4 2 3 3 5 6 4 11 11 9 12 16 13 11 9 7 5 6 15 14 18 21 19 20 17 21 24 23 23 23 29
19 18 17 16 17 17 7 6 2 2 5 2 2 3 0 5 18 12 12 14 16 13 14 17 24 25 26 18 17 19 14 12 6 19 20 19 15 15 18 15 15 12 18 14
18 18 16 12 11 12 11 7 4 1 3 4 4 4 17 18 23 15 23 27 10 12 27 33 27 25 22 25 23 25 16 18 9 12 14 15 11 12 17 19 18 8 9 12
18 17 16 13 8 7 9 9 5 3 3 9 14 16 17 19 26 20 21 29 28 23 25 5 6 12 5 6 12 12 5 10 5 4 5 13 14 11 4 1 7 5 6 12
17 16 15 14 11 8 10 11 9 7 6 7 16 14 17 9 12 17 11 17 22 27 8 2 4 6 7 5 8 5 4 9 6 5 3 10 24 7 10 3 7 9 10 15
17 17 16 15 13 12 12 16 15 10 13 19 17 15 11 13 15 9 21 17 12 14 7 10 5 6 5 4 7 11 3 2 5 9 9 7 6 9 17 7 9 19 13 15
17 18 17 16 15 15 15 19 16 17 15 27 35 32 34 28 23 11 18 16 12 4 4 3 4 3 4 3 5 3 3 7 9 5 5 8 7 19 5 10 24 25 21 20
17 18 16 16 16 14 15 24 18 21 20 24 43 49 49 47 48 40 32 26 27 9 5 4 2 3 3 11 17 5 7 8 7 7 8 13 26 24 30 29 31 31 28 33
18 16 17 17 17 16 18 27 25 24 19 25 22 30 33 33 33 31 25 25 24 23 30 21 6 10 2 8 8 9 7 13 7 7 19 20 28 34 34 35 26 30 34 36
17 18 18 19 19 20 21 26 26 24 15 9 27 27 29 34 28 29 31 41 37 36 29 20 8 8 10 5 8 8 8 6 13 16 22 26 35 33 29 32 35 37 35 33
17 18 19 20 19 18 21 26 27 27 20 8 23 47 29 23 28 26 29 36 39 29 21 11 9 5 5 4 4 13 16 14 7 14 25 23 31 34 39 34 36 39 39 36
18 19 20 20 19 17 20 11 4 7 10 8 4 18 36 10 8 17 23 27 32 26 13 8 11 23 10 4 8 23 15 18 26 26 38 38 40 44 40 37 39 36 34 37
20 20 20 21 22 19 15 9 6 8 16 8 6 8 6 16 19 21 24 21 21 19 10 9 15 12 12 3 12 38 34 30 31 28 30 31 34 30 38 38 40 37 28 28
20 20 21 24 25 22 18 17 18 17 16 7 4 5 8 9 9 9 10 7 6 9 5 4 3 3 5 5 21 26 27 29 28 29 25 28 34 32 31 26 19 24 26 29
19 20 22 22 5 1 2 6 7 14 16 4 4 2 5 10 6 8 6 5 3 4 2 3 4 2 6 8 13 20 24 15 22 26 24 23 25 34 35 36 38 33 35 36
17 18 6 4 2 7 17 4 2 4 6 8 3 5 4 7 5 4 5 4 2 2 3 2 3 4 19 30 33 27 18 12 22 27 28 28 31 30 33 35 36 34 36 36
8 2 4 8 18 5 2 3 4 5 4 6 6 8 5 10 3 4 4 3 2 3 4 2 3 3 3 10 10 7 13 21 28 27 30 30 32 36 37 38 38 36 35 33
8 9 17 11 2 0 0 3 2 3 4 4 4 8 9 7 5 4 4 3 3 5 3 2 3 3 12 15 20 24 34 34 33 31 29 32 37 36 37 37 36 35 34 34
10 2 3 3 3 1 5 4 4 2 5 4 4 5 4 3 5 6 3 4 5 3 2 3 3 7 14 20 26 31 33 34 35 30 31 37 39 36 34 35 33 35 38 39
3 4 4 4 4 5 4 4 4 5 4 7 10 6 5 5 3 3 4 4 2 3 3 4 1 15 23 25 22 32 35 37 33 29 37 42 37 38 34 37 37 35 36 29
6 5 5 6 9 3 4 4 2 3 1 8 11 8 5 4 4 3 3 3 5 4 3 2 17 26 26 29 32 35 35 38 28 39 42 40 36 35 42 35 28 24 25 29
6 8 5 7 3 3 5 6 2 3 4 10 4 3 3 4 3 3 6 3 4 3 5 23 27 30 33 34 37 36 36 29 40 47 36 31 36 34 30 29 22 22 18 12
6 8 15 13 8 9 14 11 6 4 3 2 1 3 6 3 3 3 3 2 4 18 29 31 30 33 38 39 39 37 31 31 42 29 29 32 25 22 16 14 10 10 14 21
Wind_Direction
21 23 21 20 23 29 42 56 66 23 21 24 31 41 336 343 336 4 339 338 336 12 322 285 293 271 243 18 15 343 304 289 279 265 245 233 232 229 221 231 241 243 246 257
18 17 21 21 21 20 27 42 32 32 16 75 2 345 329 323 20 334 319 297 341 331 315 320 296 347 347 4 10 357 349 296 308 298 301 6 344 337 309 255 246 243 246 260
15 13 13 19 21 22 30 30 22 16 56 76 71 0 285 346 327 314 347 284 28 357 326 322 310 325 350 346 317 308 295 273 286 285 338 336 306 316 316 349 280 269 247 263
6 8 8 8 15 20 40 45 59 17 327 352 341 258 275 289 325 354 346 325 8 329 290 305 264 324 313 288 295 163 243 265 262 262 276 282 280 270 279 286 293 288 291 292
359 359 1 2 6 24 35 60 28 0 301 306 330 326 282 329 326 350 279 307 319 316 278 273 301 310 308 275 265 227 204 271 270 273 274 273 277 278 256 258 259 274 290 296
355 355 358 2 3 13 60 39 23 233 277 304 75 245 317 293 319 296 246 323 310 293 286 307 296 285 282 267 270 268 257 262 263 273 281 289 280 253 244 248 248 249 263 323
346 348 351 4 6 5 7 5 4 310 265 192 238 292 299 291 286 270 287 297 278 277 308 311 303 290 274 263 267 260 258 260 263 259 283 262 258 252 260 255 261 339 2 353
339 341 344 341 353 340 328 333 320 233 250 247 253 262 273 282 283 284 289 286 281 292 318 293 316 306 293 254 251 270 234 257 282 254 236 291 299 276 8 77 251 278 339 342
333 333 335 332 329 311 307 304 307 270 273 236 269 276 266 263 285 286 266 299 298 293 278 284 243 262 280 282 297 220 329 239 228 257 266 274 265 306 320 213 276 27 348 341
323 322 324 328 328 327 300 289 301 285 277 282 277 262 267 263 285 285 295 293 303 302 270 268 243 243 219 261 262 301 301 301 268 290 287 272 302 25 351 358 319 314 316 314
315 320 325 320 316 321 314 299 289 292 280 283 275 271 267 273 269 271 278 297 281 245 245 256 252 235 238 275 251 238 286 305 287 261 256 272 193 326 350 276 291 292 289 304
315 316 315 316 318 319 313 299 304 295 282 267 286 286 280 268 267 267 270 264 269 275 283 259 278 282 271 268 280 277 257 206 258 211 244 278 293 297 297 304 297 288 283 303
311 312 311 312 312 307 300 296 300 299 287 294 284 287 304 292 281 276 251 265 258 255 255 267 262 253 141 265 256 263 242 248 246 291 264 262 280 291 291 294 291 307 298 305
309 311 311 311 311 305 298 292 293 287 275 276 289 302 298 301 286 273 260 262 262 261 264 258 260 267 216 241 259 243 255 270 271 268 275 288 279 278 296 302 301 305 308 305
308 309 308 310 309 310 297 287 283 281 254 279 294 303 315 310 305 287 263 262 259 254 253 249 255 231 249 233 252 261 238 265 256 267 278 282 280 291 295 295 296 299 299 303
306 307 307 307 307 307 308 311 298 240 199 272 302 293 297 328 330 315 298 271 248 238 245 260 255 252 226 241 261 263 289 274 273 267 277 278 284 294 298 292 296 307 301 299
306 306 307 302 298 290 268 246 278 243 292 277 285 282 292 321 324 320 302 288 245 230 237 237 250 238 214 263 275 275 283 285 285 283 284 287 291 292 306 296 299 301 303 306
304 307 306 302 295 287 270 281 260 263 267 254 275 275 315 331 321 314 306 281 210 217 232 239 230 231 210 255 259 273 279 299 312 311 304 292 298 307 307 307 311 312 312 312
308 309 308 298 292 73 274 296 264 244 277 239 247 270 292 325 310 291 296 296 265 259 250 240 210 184 228 245 295 300 304 327 329 343 339 323 311 312 310 306 305 305 304 307
312 315 303 252 212 249 301 293 208 204 214 218 243 241 265 309 308 283 292 291 279 275 243 211 231 254 263 275 283 294 307 337 334 307 311 314 310 309 305 302 300 295 295 298
309 301 263 278 309 323 211 240 208 187 224 212 229 233 259 291 263 289 255 298 261 262 264 183 258 270 282 351 348 341 340 334 325 314 314 314 316 309 306 305 303 298 295 295
285 292 290 298 312 208 193 253 287 196 230 214 220 249 263 280 263 267 246 262 255 253 173 238 265 266 341 353 348 332 331 331 325 319 311 313 315 306 305 304 301 302 297 295
298 267 259 240 208 241 196 230 274 270 210 233 268 302 279 272 253 260 257 250 239 328 244 239 231 314 324 340 333 319 320 326 322 321 317 316 311 308 306 308 308 300 295 294
220 221 249 213 210 233 193 186 209 248 237 319 317 281 251 236 251 233 250 251 311 255 249 242 272 328 316 322 318 319 316 319 317 321 322 319 311 308 311 312 306 298 297 304
210 204 232 229 225 216 227 253 291 267 60 351 317 275 230 248 248 225 285 258 253 232 258 273 321 317 321 318 320 319 315 319 317 325 323 321 316 314 313 320 316 305 297 301
222 225 243 244 274 257 210 275 268 154 323 328 275 269 254 250 233 224 228 262 250 305 318 311 314 314 315 315 316 316 316 316 324 326 323 319 317 320 320 321 319 310 301 285
224 233 230 238 271 265 271 271 227 316 275 222 198 245 238 299 245 253 214 255 311 313 308 307 307 308 309 310 311 312 311 313 325 327 328 322 327 326 335 5 23 91 116 124